Weather Roundup
Issued by NWS

Home | Current Version | Previous Version | Graphics & Text | Print | Product List | Glossary Off
Versions: 1 2 3 4 5 6 7 8 9 10 11 12 13 14 15 16 17 18 19 20 21 22 23 24 25 26 27 28 29 30 31 32 33 34 35 36 37 38 39 40 41 42 43 44 45 46 47 48 49 50

000
NZUS93 KARX 110510
HRRWXR

CURRENT HOURLY OBSERVATIONS ACROSS
MUCH OF THE UPPER MISSISSIPPI VALLEY
NATIONAL WEATHER SERVICE LA CROSSE WI
1200 AM CDT FRI JUL 11 2014


...SOUTHEAST MINNESOTA...


CITY           SKY/WX    TMP DP  RH WIND       PRES   REMARKS
ROCHESTER      PTCLDY    67  58  72 S12       30.07F
ROCHESTER/MAYO FAIR      70  56  62 SE10G16   30.06S
WINONA         PTCLDY    73  61  64 S6        30.06S
AUSTIN         MOCLDY    70  57  64 S10       30.06S
ALBERT LEA     CLOUDY    73  57  56 S13       30.05R
DODGE CENTER   PTCLDY    70  59  68 S14       30.06S
PRESTON        CLEAR     67  60  77 S8        30.09S
OWATONNA       CLOUDY    73  57  56 S12       30.03S
FARIBAULT      MOCLDY    75  55  50 S12       30.02S
$$

...ELSEWHERE IN MINNESOTA...


CITY           SKY/WX    TMP DP  RH WIND       PRES   REMARKS
MINNEAPOLIS    MOCLDY    75  59  57 S14       29.99S
INTNL FALLS    MOCLDY    65  59  81 SE5       29.90F
DULUTH         PTCLDY    61  52  72 SE8       29.99F
RED WING       PTCLDY    73  57  56 S7        30.02S
REDWOOD FALLS  MOCLDY    75  62  64 S13       29.94R
MANKATO        CLOUDY    73  57  56 S15G21    30.00R
WORTHINGTON    CLOUDY    72  64  78 S17       29.98S
FAIRMONT       MOCLDY    72  57  60 S17       30.00S
$$

...SOUTHWEST WISCONSIN...


CITY           SKY/WX    TMP DP  RH WIND       PRES   REMARKS
LA CROSSE      CLEAR     72  63  73 S6        30.08R HAZE
PRAIRIE DU CHI CLEAR     67  58  73 E3        30.10S
BOSCOBEL       PTCLDY    67  61  81 CALM      30.11S
LONE ROCK      MOCLDY    68  61  78 E3        30.12S
PLATTEVILLE    MOCLDY    66  61  85 SE8       30.15S
FORT MC COY    PTCLDY    69  59  69 CALM      30.10S
CAMP DOUGLAS   PTCLDY    62  62  99 SE2       30.10S
VIROQUA        FAIR      67  61  80 S8        30.11S
WIS DELLS      MOCLDY    66  59  79 S6        30.12S
$$

...ELSEWHERE IN WISCONSIN...


CITY           SKY/WX    TMP DP  RH WIND       PRES   REMARKS
MILWAUKEE      PTCLDY    63  50  62 S5        30.17S
MADISON        MOCLDY    71  59  65 S10       30.14S
GREEN BAY      PTCLDY    63  51  65 S6        30.14S
EAU CLAIRE     PTCLDY    71  64  78 S8        30.05S
BLACK RVR FLS  FAIR      65  64  95 CALM      30.08R
MEDFORD        MOCLDY    65  63  93 S5        30.10R
WAUSAU         CLOUDY    69  61  75 S8        30.09S
WIS RAPIDS     MOCLDY    68  61  78 S6        30.12R
MARSHFIELD     PTCLDY    68  62  81 S8        30.10R
RICE LAKE      MOCLDY    68  63  82 SE7       30.05S
$$

...NORTHEAST IOWA...


CITY           SKY/WX    TMP DP  RH WIND       PRES   REMARKS
WATERLOO       MOCLDY    69  58  67 S9        30.08R
DUBUQUE        PTCLDY    65  61  87 S7        30.14R
DECORAH          N/A    N/A N/A N/A MISG        N/A
MASON CITY     MOCLDY    69  60  73 S10       30.07F
CHARLES CITY   CLOUDY    68  59  73 S8        30.10R
OELWEIN        MOCLDY    66  66 100 S8        30.12R
$$

...ELSEWHERE IN IOWA...


CITY           SKY/WX    TMP DP  RH WIND       PRES   REMARKS
DES MOINES     PTCLDY    71  59  65 S9        30.07R
IOWA CITY      PTCLDY    67  62  84 SE5       30.14R
FORT DODGE     MOCLDY    72  59  64 S9G17     30.05R
MARSHALLTOWN   CLEAR     67  57  70 SE7       30.09R
CEDAR RAPIDS   PTCLDY    67  59  75 S6        30.12R
$$

...NORTHERN ILLINOIS...


CITY           SKY/WX    TMP DP  RH WIND       PRES   REMARKS
CHICAGO-OHARE  PTCLDY    65  49  56 SE5       30.17S
DUPAGE         CLEAR     62  51  67 CALM      30.17S
CHICAGO-MIDWAY PTCLDY    69  54  58 E5        30.17S
MOLINE         CLOUDY    67  59  75 S7        30.14R
ROCKFORD       MOCLDY    65  56  72 SE8       30.19R
STERLING       CLOUDY    64  57  77 S5        30.16S
PEORIA         MOCLDY    69  57  65 SE3       30.17R
$$

NOTE: "FAIR" INDICATES FEW OR NO CLOUDS BELOW 12,000 FEET WITH NO
SIGNIFICANT WEATHER AND/OR OBSTRUCTIONS TO VISIBILITY. WIND
SPEEDS ARE IN MILES-PER-HOUR.



USA.gov is the U.S. government's official web portal to all federal, state and local government web resources and services.